Time,TemperatureF,DewpointF,PressureIn,WindDirection,WindDirectionDegrees,WindSpeedMPH,WindSpeedGustMPH,Humidity,HourlyPrecipIn,Conditions,Clouds,dailyrainin,SoftwareType,DateUTC
2013-05-24 00:00:00,49.1,44.8,30.25,SE,135,0.0,0.0,85,0.00,,CLR,0.00,VWS V14.01,2013-05-24 05:00:00,
2013-05-24 01:00:00,47.8,44.4,30.27,SE,135,0.0,0.0,88,0.00,,CLR,0.00,VWS V14.01,2013-05-24 06:00:00,
2013-05-24 02:00:00,47.0,43.9,30.28,SE,135,0.0,0.0,89,0.00,,CLR,0.00,VWS V14.01,2013-05-24 07:00:00,
2013-05-24 03:00:00,45.6,42.8,30.29,SE,135,0.0,0.0,90,0.00,,CLR,0.00,VWS V14.01,2013-05-24 08:00:00,
2013-05-24 04:00:00,44.9,42.2,30.30,NNE,22,0.0,2.0,90,0.00,,CLR,0.00,VWS V14.01,2013-05-24 09:00:00,
2013-05-24 05:00:00,43.6,41.4,30.32,NNE,22,0.0,0.0,92,0.00,,CLR,0.00,VWS V14.01,2013-05-24 10:00:00,
2013-05-24 06:00:00,43.3,41.1,30.33,NNE,22,0.0,1.0,92,0.00,,CLR,0.00,VWS V14.01,2013-05-24 11:00:00,
2013-05-24 07:00:00,47.6,43.0,30.35,NE,45,0.0,3.0,84,0.00,,CLR,0.00,VWS V14.01,2013-05-24 12:00:00,
2013-05-24 08:00:00,51.4,45.8,30.36,SE,135,2.0,11.0,81,0.00,,CLR,0.00,VWS V14.01,2013-05-24 13:00:00,
2013-05-24 09:00:00,55.0,49.3,30.37,SE,135,3.0,9.0,81,0.00,,CLR,0.00,VWS V14.01,2013-05-24 14:00:00,
2013-05-24 10:00:00,54.4,50.0,30.38,SE,135,3.0,11.0,85,0.00,,CLR,0.00,VWS V14.01,2013-05-24 15:00:00,
2013-05-24 11:00:00,60.6,50.0,30.37,SE,135,3.0,13.0,68,0.00,,CLR,0.00,VWS V14.01,2013-05-24 16:00:00,
2013-05-24 12:00:00,63.6,49.5,30.36,SE,135,4.0,13.0,60,0.00,,CLR,0.00,VWS V14.01,2013-05-24 17:00:00,
2013-05-24 13:00:00,64.6,47.1,30.31,SE,135,4.0,14.0,53,0.00,,CLR,0.00,VWS V14.01,2013-05-24 18:00:00,
2013-05-24 14:00:00,66.8,45.4,30.30,ESE,112,4.0,15.0,46,0.00,,CLR,0.00,VWS V14.01,2013-05-24 19:00:00,
2013-05-24 15:00:00,67.8,45.1,30.28,SE,135,4.0,13.0,44,0.00,,CLR,0.00,VWS V14.01,2013-05-24 20:00:00,
2013-05-24 16:00:00,68.2,44.9,30.25,SE,135,4.0,15.0,43,0.00,,CLR,0.00,VWS V14.01,2013-05-24 21:00:00,
2013-05-24 17:00:00,68.4,42.5,30.23,SE,135,4.0,14.0,39,0.00,,CLR,0.00,VWS V14.01,2013-05-24 22:00:00,
2013-05-24 18:00:00,67.4,43.5,30.22,SSE,158,3.0,12.0,42,0.00,,CLR,0.00,VWS V14.01,2013-05-24 23:00:00,
2013-05-24 19:00:00,65.9,44.6,30.22,SSE,158,3.0,15.0,46,0.00,,CLR,0.00,VWS V14.01,2013-05-25 00:00:00,
2013-05-24 20:00:00,63.6,47.2,30.25,SSE,158,1.0,8.0,55,0.00,,CLR,0.00,VWS V14.01,2013-05-25 01:00:00,
2013-05-24 21:00:00,61.1,50.5,30.26,South,180,0.0,1.0,68,0.00,,CLR,0.00,VWS V14.01,2013-05-25 02:00:00,
2013-05-24 22:00:00,57.6,49.8,30.25,ESE,112,1.0,9.0,75,0.02,,CLR,0.02,VWS V14.01,2013-05-25 03:00:00,
2013-05-24 23:00:00,57.6,51.1,30.20,East,90,0.0,8.0,79,0.03,,CLR,0.03,VWS V14.01,2013-05-25 04:00:00,